DW7214 Weather Reports


Display with metric or nautical units.
time (UTC)temp
F
wind
direction
speed
MPH
gust
MPH
rain 1hr
in
rain 24hr
in
rain mn
in
humidity
%
barometer
mb
20211128141320 50 263 0.0 0.0 0.00 0.00 0.00 100 1018.2
20211128140838 50 263 0.0 0.0 0.00 0.00 0.00 100 1018.2
20211128140321 50 263 0.0 0.0 0.00 0.00 0.00 100 1018.2
20211128135832 50 263 0.0 0.0 0.00 0.00 0.00 100 1018.1
20211128135323 51 263 0.0 0.0 0.00 0.00 0.00 100 1018.1
20211128134818 51 263 0.0 0.0 0.00 0.00 0.00 100 1018.1
20211128134329 51 263 0.0 0.0 0.00 0.00 0.00 100 1018.0
20211128133817 51 263 0.0 0.0 0.00 0.00 0.00 100 1018.0
20211128133330 51 263 0.0 0.0 0.00 0.00 0.00 100 1018.0
20211128132821 51 274 0.0 0.0 0.00 0.00 0.00 100 1018.1
20211128132332 51 274 0.0 0.0 0.00 0.00 0.00 100 1018.1
20211128131823 51 275 0.0 0.0 0.00 0.00 0.00 100 1018.1
20211128131314 51 276 0.0 0.0 0.00 0.00 0.00 100 1018.1
20211128130832 51 276 0.0 0.0 0.00 0.00 0.00 100 1018.1
20211128130315 51 276 0.0 0.0 0.00 0.00 0.00 100 1018.1
20211128125830 51 276 0.0 0.0 0.00 0.00 0.00 100 1018.0
20211128125321 51 276 0.0 0.0 0.00 0.00 0.00 100 1018.0
20211128124832 51 276 0.0 0.0 0.00 0.00 0.00 100 1018.0
20211128124323 51 276 0.0 0.0 0.00 0.00 0.00 100 1017.8
20211128123832 51 276 0.0 0.0 0.00 0.00 0.00 100 1017.8
20211128123324 51 276 0.0 0.0 0.00 0.00 0.00 100 1017.8
20211128122815 51 276 0.0 0.0 0.00 0.00 0.00 100 1017.7
20211128122326 51 276 0.0 0.0 0.00 0.00 0.00 100 1017.7
20211128121817 52 276 0.0 0.0 0.00 0.00 0.00 100 1017.7
20211128121332 52 276 0.0 0.0 0.00 0.00 0.00 100 1017.8
20211128120830 52 276 0.0 0.0 0.00 0.00 0.00 100 1017.8
20211128120331 52 276 0.0 0.0 0.00 0.00 0.00 100 1017.8
20211128115822 52 276 0.0 0.0 0.00 0.00 0.00 100 1017.8
20211128115333 52 276 0.0 0.0 0.00 0.00 0.00 100 1017.8
20211128114823 52 276 0.0 0.0 0.00 0.00 0.00 100 1017.8
20211128114314 52 276 0.0 0.0 0.00 0.00 0.00 100 1017.8
20211128113822 52 276 0.0 0.0 0.00 0.00 0.00 100 1017.8
20211128113317 53 276 0.0 0.0 0.00 0.00 0.00 100 1017.8
20211128112828 53 276 0.0 0.0 0.00 0.00 0.00 100 1017.9
20211128112323 53 276 0.0 0.0 0.00 0.00 0.00 100 1017.9
20211128111814 54 276 0.0 0.0 0.00 0.00 0.00 100 1017.9
20211128111325 54 276 0.0 0.0 0.00 0.00 0.00 100 1017.8
20211128110843 54 276 0.0 0.0 0.00 0.00 0.00 100 1017.8
20211128110326 54 276 0.0 0.0 0.00 0.00 0.00 100 1017.8
20211128105817 55 276 0.0 0.0 0.00 0.00 0.00 100 1017.7
20211128105328 55 276 0.0 0.0 0.00 0.00 0.00 100 1017.7
20211128104819 55 276 0.0 0.0 0.00 0.00 0.00 100 1017.7
20211128104314 55 276 0.0 0.0 0.00 0.00 0.00 100 1017.9
20211128103821 56 225 0.0 0.0 0.00 0.00 0.00 100 1017.9
20211128103315 56 225 0.0 0.0 0.00 0.00 0.00 100 1017.9
20211128102826 57 225 0.0 0.0 0.00 0.00 0.00 100 1018.1
20211128102317 57 225 0.0 0.0 0.00 0.00 0.00 100 1018.1
20211128101828 58 225 0.0 0.0 0.00 0.00 0.00 100 1018.1
20211128101319 58 225 0.0 0.0 0.00 0.00 0.00 100 1017.9
20211128100839 58 246 1.0 0.0 0.00 0.00 0.00 100 1017.9
20211128100322 59 182 2.0 0.0 0.00 0.00 0.00 100 1018.0
20211128095832 59 200 3.0 0.0 0.00 0.00 0.00 100 1017.7
20211128095327 59 174 2.0 0.0 0.00 0.00 0.00 100 1017.7
20211128094818 59 209 2.0 0.0 0.00 0.00 0.00 100 1017.7
20211128094329 59 178 3.0 0.0 0.00 0.00 0.00 100 1017.7
20211128093836 59 166 3.0 0.0 0.00 0.00 0.00 100 1017.7
20211128093328 59 169 4.0 0.0 0.00 0.00 0.00 100 1017.7
20211128092819 59 169 3.0 0.0 0.00 0.00 0.00 100 1017.7
20211128092330 59 178 3.0 0.0 0.00 0.00 0.00 100 1017.7
20211128091821 59 179 4.0 0.0 0.00 0.00 0.00 100 1017.7
20211128091332 59 169 5.0 0.0 0.00 0.00 0.00 100 1017.7
20211128090836 59 213 5.0 0.0 0.00 0.00 0.00 100 1017.7
20211128090319 59 179 4.0 0.0 0.00 0.00 0.00 100 1017.7
20211128085830 59 163 5.0 0.0 0.00 0.00 0.00 100 1017.7
20211128085321 59 175 4.0 0.0 0.00 0.00 0.00 100 1017.7
20211128084832 59 188 5.0 0.0 0.00 0.00 0.00 100 1017.7
20211128084323 59 173 6.0 0.0 0.00 0.00 0.00 100 1017.7
20211128083832 59 204 5.0 0.0 0.00 0.00 0.00 100 1017.7
20211128083325 59 195 6.0 0.0 0.00 0.00 0.00 100 1017.7
20211128082816 59 175 6.0 0.0 0.00 0.00 0.00 100 1017.7
20211128082326 59 188 5.0 0.0 0.00 0.00 0.00 100 1017.7
20211128081821 59 214 5.0 0.0 0.00 0.00 0.00 100 1017.7
20211128081332 59 204 5.0 0.0 0.00 0.00 0.00 100 1017.7
20211128080832 60 182 7.0 0.0 0.00 0.00 0.00 100 1017.7
20211128080315 60 194 8.0 0.0 0.00 0.00 0.00 100 1017.7
20211128075826 60 219 9.0 0.0 0.00 0.00 0.07 100 1017.7
20211128075317 60 214 8.0 0.0 0.00 0.00 0.07 100 1017.7
20211128074828 60 208 6.0 0.0 0.00 0.00 0.07 100 1017.7
20211128074319 60 204 4.0 0.0 0.00 0.00 0.07 100 1017.7
20211128073828 60 238 4.0 0.0 0.00 0.00 0.07 100 1017.7
20211128073325 60 208 3.0 0.0 0.00 0.00 0.07 100 1017.7
20211128072816 60 167 4.0 0.0 0.00 0.00 0.07 100 1017.7
20211128072327 60 214 4.0 0.0 0.00 0.00 0.07 100 1017.7
20211128071818 60 178 4.0 0.0 0.00 0.00 0.07 100 1017.7
20211128071329 60 191 6.0 0.0 0.00 0.00 0.07 100 1017.7
20211128070829 60 154 6.0 0.0 0.00 0.00 0.07 100 1017.7
20211128070333 60 217 5.0 0.0 0.00 0.00 0.07 100 1017.7
20211128065824 60 180 5.0 0.0 0.00 0.00 0.07 100 1017.7
20211128065315 60 191 7.0 0.0 0.00 0.00 0.07 100 1017.7
20211128064830 60 204 9.0 0.0 0.00 0.00 0.07 100 1017.7
20211128064321 60 171 8.0 0.0 0.00 0.00 0.07 100 1017.7
20211128063830 60 193 8.0 0.0 0.00 0.00 0.07 100 1017.7
20211128063323 60 207 8.0 0.0 0.00 0.00 0.07 100 1017.7
20211128062834 60 200 8.0 0.0 0.00 0.00 0.07 100 1017.4
20211128062325 60 165 8.0 0.0 0.00 0.00 0.07 100 1017.4
20211128061816 60 172 9.0 0.0 0.00 0.00 0.07 100 1017.4
20211128061327 60 170 9.0 0.0 0.00 0.00 0.07 100 1017.3
20211128060845 60 202 7.0 0.0 0.00 0.00 0.07 100 1017.3
20211128060327 60 205 7.0 0.0 0.00 0.00 0.07 100 1017.3
20211128055822 60 214 8.0 0.0 0.00 0.00 0.07 100 1017.2
20211128055333 60 219 7.0 0.0 0.00 0.00 0.07 100 1017.2
20211128054824 59 191 7.0 0.0 0.00 0.00 0.07 100 1017.2
20211128054315 59 158 7.0 0.0 0.00 0.00 0.07 100 1017.2
20211128053823 59 192 7.0 0.0 0.00 0.00 0.07 100 1017.2
20211128053318 59 209 9.0 0.0 0.00 0.00 0.07 100 1017.2
20211128052829 59 228 10.0 0.0 0.00 0.00 0.07 100 1017.1
20211128052320 59 216 9.0 0.0 0.00 0.00 0.07 100 1017.1
20211128051815 58 202 9.0 0.0 0.00 0.00 0.07 100 1017.1
20211128051326 58 227 9.0 0.0 0.00 0.00 0.07 100 1017.0
20211128050843 59 221 9.0 0.0 0.00 0.00 0.07 100 1017.0
20211128050329 59 212 11.0 0.0 0.00 0.00 0.07 100 1017.0
20211128045820 59 200 12.0 0.0 0.00 0.00 0.07 100 1016.7
20211128045330 59 217 12.0 0.0 0.00 0.00 0.07 100 1016.7
20211128044822 59 209 13.0 0.0 0.00 0.00 0.07 100 1016.7
20211128044333 59 211 12.0 0.0 0.00 0.00 0.07 100 1016.5
20211128043817 59 221 12.0 0.0 0.00 0.00 0.07 100 1016.5
20211128043330 59 205 11.0 0.0 0.00 0.00 0.07 100 1016.5
20211128042825 59 225 10.0 0.0 0.00 0.00 0.07 100 1016.3
20211128042317 59 198 10.0 0.0 0.00 0.00 0.07 100 1016.3
20211128041828 59 198 10.0 0.0 0.00 0.00 0.07 100 1016.3
20211128041319 59 203 9.0 0.0 0.00 0.00 0.07 100 1016.2
20211128040837 59 206 9.0 0.0 0.00 0.00 0.07 100 1016.2
20211128040320 59 169 9.0 0.0 0.00 0.00 0.07 100 1016.2
20211128035831 59 193 9.0 0.0 0.00 0.00 0.07 100 1016.1
20211128035322 59 206 8.0 0.0 0.00 0.00 0.07 100 1016.1
20211128034832 59 166 7.0 0.0 0.00 0.00 0.07 100 1016.1
20211128034328 59 219 4.0 0.0 0.00 0.00 0.07 100 1016.1
20211128033836 59 198 3.0 0.0 0.00 0.00 0.07 100 1016.1
20211128033329 59 211 2.0 0.0 0.00 0.00 0.07 100 1016.1
20211128032820 59 211 3.0 0.0 0.00 0.00 0.07 100 1015.7
20211128032331 59 186 6.0 0.0 0.00 0.00 0.07 100 1015.7
20211128031823 59 201 7.0 0.0 0.00 0.00 0.07 100 1015.7
20211128031334 59 192 7.0 0.0 0.00 0.00 0.07 100 1015.7
20211128030831 59 206 8.0 0.0 0.00 0.00 0.07 100 1015.7
20211128030315 59 197 8.0 0.0 0.00 0.00 0.07 100 1015.7
20211128025828 59 225 9.0 0.0 0.00 0.00 0.07 100 1015.5
20211128025323 59 182 10.0 0.0 0.00 0.00 0.07 100 1015.5
20211128024833 59 235 10.0 0.0 0.00 0.00 0.07 100 1015.5
20211128024324 59 215 9.0 0.0 0.00 0.00 0.07 100 1015.5
20211128023832 59 217 9.0 0.0 0.00 0.00 0.07 100 1015.5
20211128023327 59 202 9.0 0.0 0.00 0.00 0.07 100 1015.5
20211128022818 59 205 8.0 0.0 0.00 0.00 0.07 100 1015.6
20211128022328 59 189 8.0 0.0 0.00 0.00 0.07 100 1015.6
20211128021820 59 205 8.0 0.0 0.00 0.00 0.07 100 1015.6
20211128021315 59 215 9.0 0.0 0.00 0.00 0.07 100 1015.6
20211128020832 59 216 9.0 0.0 0.00 0.00 0.07 100 1015.6
20211128020317 59 202 9.0 0.0 0.00 0.00 0.07 100 1015.6
20211128015827 58 193 8.0 0.0 0.00 0.00 0.07 100 1015.6
20211128015319 58 212 8.0 0.0 0.00 0.00 0.07 100 1015.6
20211128014831 58 240 9.0 0.0 0.00 0.00 0.07 100 1015.6
20211128014323 58 204 9.0 0.0 0.00 0.00 0.07 100 1015.3
20211128013833 58 194 9.0 0.0 0.00 0.00 0.07 100 1015.3
20211128013328 58 208 9.0 0.0 0.00 0.00 0.07 100 1015.3
20211128012820 58 211 7.0 0.0 0.00 0.00 0.07 100 1015.1
20211128012317 58 208 7.0 0.0 0.00 0.00 0.07 100 1015.1
20211128011828 58 190 5.0 0.0 0.00 0.00 0.07 100 1015.1
20211128011320 58 185 5.0 0.0 0.00 0.00 0.07 100 1015.1
20211128010840 58 234 5.0 0.0 0.00 0.00 0.07 100 1015.1
20211128010321 58 202 5.0 0.0 0.00 0.00 0.07 100 1015.1
20211128005832 58 196 6.0 0.0 0.00 0.00 0.07 100 1015.0
20211128005324 58 169 5.0 0.0 0.00 0.00 0.07 100 1015.0
20211128004816 58 185 6.0 0.0 0.00 0.00 0.07 100 1015.0
20211128004328 58 166 7.0 0.0 0.00 0.00 0.07 100 1015.0
20211128003821 58 170 5.0 0.0 0.00 0.00 0.06 100 1015.0
20211128003313 57 197 4.0 0.0 0.00 0.00 0.06 100 1015.0
20211128002825 58 200 5.0 0.0 0.00 0.00 0.06 100 1015.1
20211128002318 57 192 5.0 0.0 0.00 0.00 0.06 100 1015.1
20211128001830 57 190 6.0 0.0 0.00 0.00 0.06 100 1015.1
20211128001322 57 203 6.0 0.0 0.00 0.00 0.06 100 1015.0
20211128000840 57 172 7.0 0.0 0.00 0.00 0.06 100 1015.0
20211128000323 57 175 6.0 0.0 0.00 0.00 0.06 100 1015.0
20211127235815 57 196 6.0 0.0 0.00 0.00 0.06 100 1014.7
20211127235330 57 190 5.0 0.0 0.00 0.00 0.06 100 1014.7
20211127234821 57 185 4.0 0.0 0.00 0.00 0.06 100 1014.7
20211127234313 57 202 3.0 0.0 0.00 0.00 0.06 100 1014.6
20211127233823 57 205 3.0 0.0 0.00 0.00 0.06 100 1014.6
20211127233318 57 198 4.0 0.0 0.00 0.00 0.06 100 1014.6
20211127232830 57 180 5.0 0.0 0.00 0.00 0.06 100 1014.7
20211127232322 57 193 6.0 0.0 0.00 0.00 0.06 100 1014.7
20211127231814 57 175 4.0 0.0 0.00 0.00 0.06 100 1014.7
20211127231325 57 198 3.0 0.0 0.00 0.00 0.06 100 1014.7
20211127230827 57 201 3.0 0.0 0.00 0.00 0.06 100 1014.7
20211127230330 57 208 4.0 0.0 0.00 0.00 0.06 100 1014.7
20211127225821 57 217 4.0 0.0 0.00 0.00 0.05 100 1014.5
20211127225334 57 235 4.0 0.0 0.00 0.00 0.05 100 1014.5
20211127224824 57 211 4.0 0.0 0.00 0.00 0.05 100 1014.5
20211127224317 56 198 4.0 0.0 0.00 0.00 0.05 100 1014.5
20211127223825 56 224 3.0 0.0 0.00 0.00 0.05 100 1014.5
20211127223320 56 186 3.0 0.0 0.00 0.00 0.05 100 1014.5
20211127222832 56 205 4.0 0.0 0.00 0.00 0.05 100 1014.5
20211127222328 56 217 4.0 0.0 0.00 0.00 0.04 100 1014.5
20211127221820 56 178 3.0 0.0 0.00 0.00 0.03 100 1014.5
20211127221331 56 172 4.0 0.0 0.00 0.00 0.03 100 1014.6
20211127220832 56 196 4.0 0.0 0.00 0.00 0.02 100 1014.6
20211127220316 56 216 7.0 0.0 0.00 0.00 0.01 100 1014.6
20211127215828 56 209 7.0 0.0 0.00 0.00 0.01 100 1014.8
20211127215319 56 201 5.0 0.0 0.00 0.00 0.01 100 1014.8
20211127214832 56 190 4.0 0.0 0.00 0.00 0.01 100 1014.8
20211127214323 56 251 5.0 0.0 0.00 0.00 0.01 100 1014.9
20211127213818 57 205 6.0 0.0 0.00 0.00 0.01 100 1014.9
20211127213314 57 186 8.0 0.0 0.00 0.00 0.01 100 1014.9
20211127212826 57 251 8.0 0.0 0.00 0.00 0.01 100 1014.9
20211127212317 57 214 8.0 0.0 0.00 0.00 0.01 100 1014.9
20211127211830 57 228 9.0 0.0 0.00 0.00 0.01 100 1014.9
20211127211322 57 208 9.0 0.0 0.00 0.00 0.01 100 1015.0
20211127210842 58 201 9.0 0.0 0.00 0.00 0.01 100 1015.0
20211127210325 58 219 8.0 0.0 0.00 0.00 0.01 100 1015.0
20211127205818 59 216 8.0 0.0 0.00 0.00 0.01 100 1015.1
20211127205313 59 215 9.0 0.0 0.00 0.00 0.01 100 1015.1
20211127204825 59 252 9.0 0.0 0.00 0.00 0.01 100 1015.1
20211127204337 59 217 7.0 0.0 0.00 0.00 0.01 100 1015.1
20211127203820 59 209 6.0 0.0 0.00 0.00 0.01 100 1015.1
20211127203332 59 202 7.0 0.0 0.00 0.00 0.01 100 1015.1
20211127202821 59 196 6.0 0.0 0.00 0.00 0.01 100 1015.3
20211127202327 59 197 6.0 0.0 0.00 0.00 0.01 100 1015.3
20211127201819 58 153 7.0 0.0 0.00 0.00 0.01 100 1015.3
20211127201323 58 159 7.0 0.0 0.00 0.00 0.01 100 1015.6
20211127200322 57 167 6.0 0.0 0.00 0.00 0.00 100 1015.5
20211127194835 57 242 5.0 0.0 0.00 0.00 0.00 100 1015.6
20211127194320 57 204 5.0 0.0 0.00 0.00 0.00 100 1015.8
20211127192828 56 227 4.0 0.0 0.00 0.00 0.00 100 1016.2
20211127192335 56 213 5.0 0.0 0.00 0.00 0.00 100 1016.2
20211127191823 57 240 5.0 0.0 0.00 0.00 0.00 100 1016.2
20211127191314 57 213 5.0 0.0 0.00 0.00 0.00 100 1016.2
20211127190831 57 219 5.0 0.0 0.00 0.00 0.00 100 1016.2
20211127190331 57 236 4.0 0.0 0.00 0.00 0.00 100 1016.2
20211127185821 57 221 6.0 0.0 0.00 0.00 0.00 100 1016.5
20211127185330 57 190 6.0 0.0 0.00 0.00 0.00 100 1016.5
20211127184820 56 219 4.0 0.0 0.00 0.00 0.00 100 1016.5
20211127184330 56 184 5.0 0.0 0.00 0.00 0.00 100 1016.5
20211127183835 56 177 7.0 0.0 0.00 0.00 0.00 100 1016.5
20211127183325 56 181 7.0 0.0 0.00 0.00 0.00 100 1016.5
20211127182816 55 198 6.0 0.0 0.00 0.00 0.00 100 1016.7
20211127182330 55 173 8.0 0.0 0.00 0.00 0.00 100 1016.7
20211127181817 55 198 8.0 0.0 0.00 0.00 0.00 100 1016.7
20211127181327 55 207 7.0 0.0 0.00 0.00 0.00 100 1016.7
20211127180836 54 182 7.0 0.0 0.00 0.00 0.00 100 1016.7
20211127180317 54 233 5.0 0.0 0.00 0.00 0.00 100 1016.7
20211127175828 54 198 6.0 0.0 0.00 0.00 0.00 100 1016.7
20211127175319 53 212 6.0 0.0 0.00 0.00 0.00 100 1016.7
20211127174830 53 195 6.0 0.0 0.00 0.00 0.00 100 1016.7
20211127174318 53 149 6.0 0.0 0.00 0.00 0.00 100 1016.6
20211127173826 53 202 5.0 0.0 0.00 0.00 0.00 100 1016.6
20211127173322 53 161 6.0 0.0 0.00 0.00 0.00 100 1016.6
20211127172833 53 205 5.0 0.0 0.00 0.00 0.00 100 1016.7
20211127172323 53 158 4.0 0.0 0.00 0.00 0.00 100 1016.7
20211127171833 53 165 4.0 0.0 0.00 0.00 0.00 100 1016.7
20211127171324 53 200 3.0 0.0 0.00 0.00 0.00 100 1016.6
20211127170845 53 208 3.0 0.0 0.00 0.00 0.00 100 1016.6
20211127170326 53 242 3.0 0.0 0.00 0.00 0.00 100 1016.6
20211127165818 53 198 4.0 0.0 0.00 0.00 0.00 100 1016.6
20211127165329 53 173 6.0 0.0 0.00 0.00 0.00 100 1016.6
20211127164823 53 192 8.0 0.0 0.00 0.00 0.00 100 1016.6
20211127164314 53 194 5.0 0.0 0.00 0.00 0.00 100 1016.6
20211127163824 53 175 5.0 0.0 0.00 0.00 0.00 100 1016.6
20211127163318 53 221 5.0 0.0 0.00 0.00 0.00 100 1016.6
20211127162828 53 151 5.0 0.0 0.00 0.00 0.00 100 1016.5
20211127162318 53 184 6.0 0.0 0.00 0.00 0.00 100 1016.5
20211127161829 53 225 5.0 0.0 0.00 0.00 0.00 100 1016.5
20211127161320 53 202 3.0 0.0 0.00 0.00 0.00 100 1016.6
20211127160840 53 193 3.0 0.0 0.00 0.00 0.00 100 1016.6
20211127160323 53 180 2.0 0.0 0.00 0.00 0.00 100 1016.6
20211127155818 53 188 2.0 0.0 0.00 0.00 0.00 100 1016.6
20211127155328 53 229 4.0 0.0 0.00 0.00 0.00 100 1016.6
20211127154820 53 173 4.0 0.0 0.00 0.00 0.00 100 1016.6
20211127154330 53 182 4.0 0.0 0.00 0.00 0.00 100 1016.6
20211127153820 53 233 2.0 0.0 0.00 0.00 0.00 100 1016.6
20211127153316 52 192 2.0 0.0 0.00 0.00 0.00 100 1016.6
20211127152826 52 221 3.0 0.0 0.00 0.00 0.00 100 1016.7
20211127152318 52 205 2.0 0.0 0.00 0.00 0.00 100 1016.7
20211127151828 51 275 1.0 0.0 0.00 0.00 0.00 100 1016.7
20211127151323 51 201 1.0 0.0 0.00 0.00 0.00 100 1016.7
20211127150842 50 215 0.0 0.0 0.00 0.00 0.00 100 1016.7
20211127150325 50 63 0.0 0.0 0.00 0.00 0.00 100 1016.7
20211127145817 50 63 0.0 0.0 0.00 0.00 0.00 100 1017.0
20211127145327 50 63 0.0 0.0 0.00 0.00 0.00 100 1017.0
20211127144818 50 63 0.0 0.0 0.00 0.00 0.00 100 1017.0
20211127144328 50 63 0.0 0.0 0.00 0.00 0.00 100 1017.1
20211127143818 50 63 0.0 0.0 0.00 0.00 0.00 100 1017.1
20211127143332 49 63 0.0 0.0 0.00 0.00 0.00 100 1017.1
20211127142827 49 63 0.0 0.0 0.00 0.00 0.00 100 1016.9
20211127142318 50 63 0.0 0.0 0.00 0.00 0.00 100 1016.9
20211127141828 50 63 0.0 0.0 0.00 0.00 0.00 100 1016.9